AISat 1
1 44104U 19018AC 21007.77552710 .00001502 00000-0 49584-4 0 9998
2 44104 97.4437 84.5297 0056702 205.5687 154.2748 15.31557709 99076
Raavana-1
1 44329U 98067QE 21007.41840966 .00023295 00000-0 23831-3 0 9991
2 44329 51.6382 27.6592 0006508 45.5499 314.6028 15.64879362 88859
Uguisu
1 44330U 98067QF 21007.44641276 .00023077 00000-0 23787-3 0 9997
2 44330 51.6362 27.7926 0006488 44.7290 315.4227 15.64694102 88833
NepaliSat-1
1 44331U 98067QG 21007.40957236 .00023960 00000-0 24504-3 0 9999
2 44331 51.6360 27.5480 0006475 47.5979 312.5563 15.64868814 88841
Prox-1
1 44339U 19036A 21007.08925376 .00000923 00000-0 16799-3 0 9991
2 44339 24.0000 270.2831 0011421 215.4985 144.4747 14.53313145 81726
Oculus-ASR
1 44348U 19036K 21007.77172590 .00011233 00000-0 15768-3 0 9990
2 44348 28.5149 119.1952 0347901 334.1205 24.2355 15.07478512 84603
Armadillo
1 44352U 19036P 21007.48936770 .00016114 00000-0 21940-3 0 9993
2 44352 28.5299 109.6528 0326734 348.3515 10.9663 15.12538659 84620
NO-104
1 44354U 19036R 21007.48617799 .00010809 00000-0 14833-3 0 9990
2 44354 28.5298 116.3397 0343814 337.1568 21.4053 15.08740868 84602
NO-103
1 44355U 19036S 21007.47983085 .00022268 00000-0 27569-3 0 9996
2 44355 28.5280 92.6902 0303511 15.6817 345.2946 15.19232730 84847
CP9
1 44360U 19036X 21007.81088154 .00037650 -54495-5 34436-3 0 9998
2 44360 28.5092 55.7238 0261728 77.2916 285.6804 15.32950009 85104
Move-IIb
1 44398U 19038N 21007.57015646 .00001303 00000-0 76988-4 0 9992
2 44398 97.5623 332.5837 0025432 141.1668 219.1396 15.13010812 83437
SONATE
1 44400U 19038Q 21007.60810329 .00000900 00000-0 55464-4 0 9999
2 44400 97.5670 332.5970 0025974 140.1984 220.1160 15.12260501 83423
BeeSat 9
1 44412U 19038AC 21007.43395294 .00001282 00000-0 76384-4 0 9990
2 44412 97.5669 332.5935 0023235 145.3326 214.9425 15.12794903 83108
JAISAT-1
1 44419U 19038F 21007.45518599 .00001250 00000-0 73617-4 0 9995
2 44419 97.5673 333.0349 0022146 143.7564 216.5172 15.13278769 83443
LightSail-2
1 44420U 19036AC 21007.12295671 .00006284 00000-0 12879-2 0 9995
2 44420 24.0078 258.7565 0022219 212.9155 146.9954 14.58074399 80013
Taurus 1
1 44530U 19059C 21007.70206090 .00000582 00000-0 17643-3 0 9993
2 44530 98.5593 96.6885 0013206 263.5849 96.3840 14.45847878 69852
Duchifat 3
1 44854U 19089C 21007.23726157 .00000514 00000-0 47693-4 0 9998
2 44854 36.9676 333.8735 0008958 275.8853 84.0874 14.99284789 58896
OPS-SAT
1 44878U 19092F 21007.56415981 .00001436 00000-0 78022-4 0 9998
2 44878 97.4684 193.4884 0014292 14.8312 345.3337 15.16027120 58450
TO-108
1 44881U 19093C 21007.71435181 .00000005 00000-0 74305-5 0 9996
2 44881 97.9405 88.1807 0016309 93.6967 266.6117 14.81421664 56931
FloripaSat 1
1 44885U 19093G 21007.75470352 .00000356 00000-0 51376-4 0 9994
2 44885 97.9417 88.5817 0016040 103.4880 256.8128 14.82173452 56965
RS-44
1 44909U 19096E 21007.33730896 .00000021 00000-0 30580-4 0 9993
2 44909 82.5196 219.8403 0218314 109.7444 252.7345 12.79708089 48263
SwampSat-2
1 45115U 19071E 21007.65378194 .00020533 00000-0 47683-3 0 9991
2 45115 51.6390 89.4858 0009896 70.7823 289.4233 15.42284629 52543
HO-107
1 45119U 19071J 21007.43823033 .00003094 00000-0 10172-3 0 9994
2 45119 51.6427 96.9445 0012229 69.5020 290.7273 15.34673709 52431
Phoenix
1 45258U 98067RB 21007.57766856 .00007430 00000-0 12192-3 0 9996
2 45258 51.6412 51.9848 0006404 21.3569 338.7688 15.53529669 50177
AztechSat-1
1 45261U 98067RE 21007.47434101 .00016600 00000-0 22936-3 0 9990
2 45261 51.6404 49.0566 0007949 34.6129 325.5379 15.57262420 50232
QARMAN
1 45263U 98067RG 21007.38402678 .00013541 00000-0 20021-3 0 9990
2 45263 51.6408 51.4509 0007523 31.4652 328.6788 15.55612584 50221
Quetzal 1
1 45598U 98067RL 21007.39524550 .00012170 00000-0 18900-3 0 9996
2 45598 51.6419 53.7827 0002644 98.2591 261.8700 15.54389609 39467
BY70-2
1 45857U 20042B 21007.72781408 .00001137 00000-0 17005-3 0 9992
2 45857 97.9990 85.1025 0010838 19.2165 340.9452 14.76606993 27826
UPMSat 2
1 46276U 20061E 21007.79836575 .00000620 00000-0 35493-4 0 9990
2 46276 97.4512 84.6849 0001801 141.2960 218.8402 15.16225390 19196
AmicalSat
1 46287U 20061R 21007.44677822 .00000620 00000-0 41799-4 0 9998
2 46287 97.5065 84.1299 0001360 310.0159 50.0951 15.10167243 19047
SALSAT
1 46495U 20068K 21007.59028051 -.00000499 00000-0 -32156-4 0 9999
2 46495 97.6789 306.1960 0015439 256.3622 103.5886 15.03306594 15169
BY70-3
1 46839U 20079N 21007.89293108 .00002593 00000-0 84690-4 0 9998
2 46839 97.2585 84.9172 0008976 67.3367 52.8316 15.32605907 9609
Bobcat-1
1 46921U 98067RR 21007.50536067 .00006851 00000-0 12190-3 0 9990
2 46921 51.6438 56.7626 0001611 182.5603 177.5379 15.51382918 9851
SPOC
1 46922U 98067RS 21007.43319284 .00009317 00000-0 16055-3 0 9997
2 46922 51.6440 57.0322 0001129 184.1106 175.9875 15.51802332 9795
Neutron-1
1 46923U 98067RT 21007.38019331 .00006921 00000-0 12350-3 0 9994
2 46923 51.6437 57.4259 0001406 201.4800 158.6131 15.51280327 9862
/EX
1
0
The following satellite has decayed from orbit and has been removed from
this week's AMSAT-NA TLE Distribution:
UBAKUSAT - NORAD Cat ID 43467 (Decayed on December 27, 2020 per
Space-Track).
1
0
The following satellite has decayed from orbit and has been removed from
this week's AMSAT-NA TLE Distribution:
EQUISat - NORAD Cat ID 43552 (Decayed on December 26, 2020 per Space-Track).
1
0
SB KEPS @ AMSAT $ORB20366.N
2Line Orbital Elements 20366.AMSAT
HR AMSAT ORBITAL ELEMENTS FOR AMATEUR SATELLITES IN NASA FORMAT
FROM WA5QGD FORT WORTH,TX December 31, 2020
BID: ORB20366.N
DECODE 2-LINE ELSETS WITH THE FOLLOWING KEY:
1 AAAAAU 00 0 0 BBBBB.BBBBBBBB .CCCCCCCC 00000-0 00000-0 0 DDDZ
2 AAAAA EEE.EEEE FFF.FFFF GGGGGGG HHH.HHHH III.IIII JJ.JJJJJJJJKKKKKZ
KEY: A-CATALOGNUM B-EPOCHTIME C-DECAY D-ELSETNUM E-INCLINATION F-RAAN
G-ECCENTRICITY H-ARGPERIGEE I-MNANOM J-MNMOTION K-ORBITNUM Z-CHECKSUM
TO ALL RADIO AMATEURS BT
AO-07
1 07530U 74089B 20366.37242588 -.00000042 00000-0 19964-4 0 9999
2 07530 101.8310 335.2170 0012277 346.5098 179.8024 12.53646807110663
UO-11
1 14781U 84021B 20366.75490706 .00000138 00000-0 22962-4 0 9998
2 14781 97.5893 8.8995 0006945 273.6933 86.3487 14.83232730982075
LO-19
1 20442U 90005G 20366.34991863 -.00000002 00000-0 15892-4 0 9998
2 20442 98.7194 314.5035 0010771 298.5204 61.4895 14.32972207616754
HUBBLE
1 20580U 90037B 20366.60128515 .00000651 00000-0 28533-4 0 9996
2 20580 28.4700 95.6060 0002912 57.0421 85.2512 15.09525089485731
MET-2/21
1 22782U 93055A 20366.18847081 -.00000008 00000-0 -20627-4 0 9998
2 22782 82.5492 77.4630 0023233 46.1017 9.2054 13.83833071380257
AO-27
1 22825U 93061C 20366.25436418 .00000002 00000-0 18920-4 0 9994
2 22825 98.9242 13.6761 0008806 157.9591 202.1971 14.30102406421941
IO-26
1 22826U 93061D 20366.75413331 -.00000003 00000-0 16939-4 0 9999
2 22826 98.9184 14.1137 0009554 145.3616 214.8189 14.30439825422502
FO-29
1 24278U 96046B 20366.22731711 -.00000022 00000-0 16082-4 0 9995
2 24278 98.5867 90.3622 0349707 225.2502 131.9688 13.53101725203490
